Regional Weather Roundup
Issued by NWS

Home | Current Version | Previous Version | Text Only | Print | Product List | Glossary Off
Versions: 1 2 3 4 5 6 7 8 9 10 11 12 13 14 15 16 17 18 19 20 21 22 23 24 25 26 27

000
ASUS43 KDMX 242307
RWRIA

WEATHER ROUNDUP FOR IOWA
NATIONAL WEATHER SERVICE DES MOINES IA
600 PM CDT FRI OCT 24 2014

NOTE: "FAIR" INDICATES FEW OR NO CLOUDS BELOW 12,000 FEET WITH NO
SIGNIFICANT WEATHER AND/OR OBSTRUCTIONS TO VISIBILITY.

* - THESE STATIONS ARE NOT NWS STATIONS...THUS NOT UNDER NWS
QUALITY CONTROL.  THEY ALSO DO NOT REPORT WEATHER SUCH
AS PRECIPITATION OR FOG.

IAZ001>003-012>014-020>022-031>034-043>046-250000-
   NORTHWEST IOWA

CITY           SKY/WX    TMP DP  RH WIND       PRES   REMARKS
CARROLL *      CLEAR     68  55  64 W6        29.90R
CHEROKEE *     CLEAR     70  48  46 CALM      29.91R
DENISON *      CLEAR     70  54  56 MISG      29.90R
LE MARS *      CLEAR     70  45  40 CALM      29.92R
ORANGE CITY *  CLEAR     72  45  37 NW3       29.92S
SHELDON *      CLEAR     70  46  43 CALM      29.90S
SIOUX CITY     CLEAR     71  49  45 N6        29.92R
SPENCER        CLEAR     68  48  48 W8        29.91R
STORM LAKE *   CLEAR     68  50  52 NW8       29.93R
$$

IAZ055>058-069>071-079>083-090>094-250000-
   SOUTHWEST IOWA

CITY           SKY/WX    TMP DP  RH WIND       PRES   REMARKS
AUDUBON *      CLEAR     70  57  64 W3        29.92R
CLARINDA *     CLEAR     73  63  68 W3        29.92S
COUNCIL BLFS * CLEAR     70  61  73 SW5       29.91R
CRESTON *      CLEAR     68  63  83 SW6       29.92S
HARLAN  *      CLEAR     70  59  68 W3        29.95R
LAMONI         MOCLDY    68  62  81 SW3       29.92S
RED OAK *      CLEAR     70  63  78 SW6       29.91S
SHENANDOAH *   CLEAR     72  61  68 CALM      29.92R
$$

IAZ047>049-059>061-072>074-084-250000-
   CENTRAL IOWA

CITY           SKY/WX    TMP DP  RH WIND       PRES   REMARKS
AMES           PTCLDY    67  58  72 SW6       29.90R
ANKENY *       CLEAR     66  63  88 S6        29.90R
CHARITON *     MOCLDY    64  61  88 S7        29.92S FOG
DES MOINES     CLOUDY    66  60  81 SW5       29.90R
GRINNELL*      CLOUDY    63  59  88 S6        29.92R FOG
KNOXVILLE *    PTCLDY    63  59  88 S7        29.90S FOG
MARSHALLTOWN   MOCLDY    62  60  93 S5        29.90R FOG
PELLA *        CLOUDY    64  61  88 S3        29.93R FOG
PERRY *          N/A     70  59  68 SW3       29.90R
$$

IAZ004>006-015-016-023>025-035-036-250000-
   NORTH CENTRAL IOWA

CITY           SKY/WX    TMP DP  RH WIND       PRES   REMARKS
ALGONA *       CLEAR     68  55  64 W6        29.90R
CLARION *      CLEAR     68  57  68 W3        29.89R
ESTHERVILLE    PTCLDY    70  36  28 NW8       29.89R
FORT DODGE *   PTCLDY    70  55  60 W5        29.90R
MASON CITY     MOCLDY    64  56  75 W5        29.90R
FOREST CITY *  CLEAR     64  55  72 CALM      29.89R
IOWA FALLS *     N/A     63  61  94 S3        29.91R FOG
$$

IAZ007>011-017>019-026>030-037>042-050>054-066-250000-
   NORTHEAST IOWA

CITY           SKY/WX    TMP DP  RH WIND       PRES   REMARKS
CEDAR RAPIDS   CLOUDY    60  60 100 S7        29.92R FOG
CHARLES CITY * CLOUDY    59  59 100 S5        29.90R FOG
CLINTON *      CLOUDY    64  52  63 S9        29.93S
DECORAH *      CLOUDY    59  57  94 S7        29.90R
DUBUQUE        CLOUDY    63  54  72 SW13      29.91S
MONTICELLO *   CLOUDY    63  57  82 S3        29.91S
OELWEIN *      CLOUDY    59  59 100 S7        29.92R FOG
WATERLOO       MOCLDY    60  59  96 S3        29.90R FOG
$$

IAZ064-065-067-068-078-250000-
   EAST CENTRAL IOWA

CITY           SKY/WX    TMP DP  RH WIND       PRES   REMARKS
DAVENPORT      CLOUDY    66  52  60 S14       29.90F
IOWA CITY      LGT RAIN  61  60  97 SW7       29.94R FOG
MT. PLEASANT * MOCLDY    59  57  94 SW3       29.93S FOG
MUSCATINE *    CLOUDY    63  57  82 SW10G16   29.93R
QUAD CITIES    CLOUDY    67  53  61 S8        29.90F
$$

IAZ062-063-075>077-085>089-095>099-250000-
   SOUTHEAST IOWA

CITY           SKY/WX    TMP DP  RH WIND       PRES   REMARKS
BURLINGTON     PTCLDY    64  58  80 S9        29.91F
FAIRFIELD *    CLOUDY    63  59  88 S7        29.93R
FORT MADISON * CLEAR     64  61  88 S7        29.92F
KEOKUK *       CLEAR     66  59  77 S7        29.91F
OSKALOOSA *    CLOUDY    64  59  82 SW9G17    29.92S
CENTERVILLE *  CLEAR     66  63  88 W5        29.94S
OTTUMWA        CLOUDY    65  60  84 SW6       29.91S
WASHINGTON *   CLOUDY    61  61 100 S10       29.92R
$$

ABBREVIATIONS USED IN REMARKS
   TC - TEMPERATURES IN CELSIUS
  WCI - WIND CHILL INDEX
   HX - HEAT INDEX
  VSB - VISIBILITY
$$




USA.gov is the U.S. government's official web portal to all federal, state and local government web resources and services.